Location: Coopersdale
(40.3556°N, 78.9372°W)
Time: 03:38:48
(UTC+00:00)

Tiros 1 despin weight - Pass Details

Date: 23 January 2021
Orbit: 593 x 642 km, 48.2° (Epoch: 02 March)

Event Time Altitude Azimuth Distance (km) Brightness Sun altitude
Rises 00:34:47 0° 299° (WNW) 2,850 ? -25.0°
Reaches altitude 10° 00:37:11 10° 306° (NW) 1,939 ? -25.5°
Enters shadow 00:40:12 35° 336° (NNW) 964 ? -26.1°
Maximum altitude 00:41:27 45° 20° (NNE) 814 - -26.3°
Drops below altitude 10° 00:45:41 10° 94° (E) 1,921 - -27.1°
Sets 00:48:02 0° 100° (E) 2,819 - -27.6°
